Main page
METAR-TAF:

METAR-TAF

Airports :

Oil platform

Goeree Le, Netherlands

latitude: 51-55-33N, longitude: 3-40-12E, elevation: 19 m

Current weather observation

The report was made 23 minutes ago, at 17:25 UTC
Wind 10 kt from the Southeast
Temperature 12°C
Humidity 82%
Pressure 1023 hPa
Visibility 10 km or more

METAR: EHSC 151725Z AUTO 14010KT 9999 ///////// 12/09 Q1023 W12/H4

Time: 18:48 (17:48 UTC)


TAF: missing

Weather observations and forecasts of more than 4000 airports (METAR and TAF reports).

The available stations are represented by yellow and red dots on the map.

Hover mouse over dot to see the name of the station.

Then click to see weather observations and forecasts.

To change the map : click on the green buttons with a black cross to zoom in, on the green button with a dash to zoom out, or on the green arrows for adjacent maps.


METAR-TAF: